SCP
0 0 0 0 0 0 0 0 0 0 0 1 1 2 3 3 3 2 2 2 3 3 3 3 3 4 5 5 4 3 2 3 4 5 5 4 5 4 4 3 3 3 3 3
0 0 0 0 0 0 0 0 0 0 0 1 1 2 2 2 2 2 2 2 2 3 3 3 3 3 4 4 3 2 2 2 2 3 3 3 3 3 2 2 2 2 2 2
0 0 0 0 0 0 0 0 0 0 0 0 1 1 2 2 2 1 1 1 2 2 2 2 2 2 2 3 2 1 1 1 1 1 1 1 1 1 1 0 0 1 1 1
0 0 0 0 0 0 0 0 0 0 0 0 0 1 1 1 1 1 1 1 1 1 1 1 1 1 1 1 1 0 0 0 0 0 0 0 0 0 0 0 0 0 0 0
0 0 0 0 0 0 0 0 0 0 0 0 0 0 1 1 1 1 1 1 1 1 0 0 0 0 0 0 0 0 0 0 0 0 0 0 0 0 0 0 0 0 0 0
0 0 0 0 0 0 0 0 0 0 0 0 0 0 0 1 1 0 0 0 0 0 0 0 0 0 0 0 0 0 0 0 0 0 0 0 0 0 0 0 0 0 0 0
0 0 0 0 0 0 0 0 0 0 0 0 0 0 0 0 0 0 0 0 0 0 0 0 0 0 0 0 0 0 0 0 0 0 0 0 0 0 0 0 0 0 0 0
0 0 0 0 0 0 0 0 0 0 0 0 0 0 0 0 0 0 0 0 0 0 0 0 0 0 0 0 0 0 0 0 0 0 0 0 0 0 0 0 0 0 0 0
0 0 0 0 0 0 0 0 0 0 0 0 0 0 0 0 0 0 0 0 0 0 0 0 0 0 0 0 0 0 0 0 0 0 0 0 0 0 0 0 0 0 0 0
0 0 0 0 0 0 0 0 0 0 0 0 0 0 0 0 0 0 0 0 0 0 0 0 0 0 0 0 0 0 0 0 0 0 0 0 0 0 0 0 0 0 0 0
0 0 0 0 0 0 0 0 0 0 0 0 0 0 0 0 0 0 0 0 0 0 0 0 0 0 0 0 0 0 0 0 0 0 0 0 0 0 0 0 0 0 0 0
0 0 0 0 0 0 0 0 0 0 0 0 0 0 0 0 0 0 0 0 0 0 0 0 0 0 0 0 0 0 0 0 0 0 0 0 0 0 0 0 0 0 0 0
0 0 0 0 0 0 0 0 0 0 0 0 0 0 0 0 0 0 0 0 0 0 0 0 0 0 0 0 0 0 0 0 0 0 0 0 0 0 0 0 0 0 0 0
0 0 0 0 0 0 0 0 0 0 0 0 0 0 0 0 0 0 0 0 0 0 0 0 0 0 0 0 0 0 0 0 0 0 0 0 0 0 0 0 0 0 0 0
0 0 0 0 0 0 0 0 0 0 0 0 0 0 0 0 0 0 0 0 0 0 0 0 0 0 0 0 0 0 0 0 0 0 0 0 0 0 0 0 0 0 0 0
0 0 0 0 0 0 0 0 0 0 0 0 0 0 0 0 0 0 0 0 0 0 0 0 0 0 0 0 0 0 0 0 0 0 0 0 0 0 0 0 0 0 0 0
0 0 0 0 0 0 0 0 0 0 0 0 0 0 0 0 0 0 0 0 0 0 0 0 0 0 0 0 0 0 0 0 0 0 0 0 0 0 0 0 0 0 0 0
0 0 0 0 0 0 0 0 0 0 0 0 0 0 0 0 0 0 0 0 0 0 0 0 0 0 0 0 0 0 0 0 0 0 0 0 0 0 0 0 0 0 0 0
0 0 0 0 0 0 0 0 0 0 0 0 0 0 0 0 0 0 0 0 0 0 0 0 0 0 0 0 0 0 0 0 0 0 0 0 0 0 0 0 0 0 0 0
0 0 0 0 0 0 0 0 0 0 0 0 0 0 0 0 0 0 0 0 0 0 0 0 0 0 0 0 0 0 0 0 0 0 0 0 0 0 0 0 0 0 0 0
0 0 0 0 0 0 0 0 0 0 0 0 0 0 0 0 0 0 0 0 0 0 0 0 0 0 0 0 0 0 0 0 0 0 0 0 0 0 0 0 0 0 0 0
0 0 0 0 0 0 0 0 0 0 0 0 0 0 0 0 0 0 0 0 0 0 0 0 0 0 0 0 0 0 0 0 0 0 0 0 0 0 0 0 0 0 0 0
0 0 0 0 0 0 0 0 0 0 0 0 0 0 0 0 0 0 0 0 0 0 0 0 0 0 0 0 0 0 0 0 0 0 0 0 0 0 0 0 0 0 0 0
0 0 0 0 0 0 0 0 0 0 0 0 0 0 0 0 0 0 0 0 0 0 0 0 0 0 0 0 0 0 0 0 0 0 0 0 0 0 0 0 0 0 0 0
0 0 0 0 0 0 0 0 0 0 0 0 0 0 0 0 0 0 0 0 0 0 0 0 0 0 0 0 0 0 0 0 0 0 0 0 0 0 0 0 0 0 0 0
0 0 0 0 0 0 0 0 0 0 0 0 0 0 0 0 0 0 0 0 0 0 0 0 0 0 0 0 0 0 0 0 0 0 0 0 0 0 0 0 0 0 0 0
Wind_Speed
3 3 2 6 7 5 2 1 2 1 2 8 10 10 11 11 12 12 11 10 10 9 7 7 8 7 7 6 6 5 4 3 2 1 1 0 1 1 1 2 4 5 5 5
4 3 6 4 3 3 3 1 0 2 4 6 7 9 8 10 10 9 9 9 8 7 7 8 8 8 7 6 6 6 5 5 4 2 1 0 1 1 2 2 3 4 4 4
3 6 3 1 0 1 2 3 3 3 3 4 4 5 5 5 7 9 9 8 7 7 7 7 8 7 6 7 6 6 5 5 5 4 2 1 1 1 1 2 2 2 3 3
3 4 2 2 1 2 2 2 3 3 4 1 1 1 1 1 4 6 7 7 7 6 6 5 5 5 5 4 4 4 4 5 4 4 4 4 2 1 2 2 2 2 1 1
4 3 3 2 3 1 1 3 3 3 4 4 4 3 2 0 1 2 2 3 4 4 4 4 3 3 3 3 3 3 3 4 4 5 5 4 3 1 1 2 3 3 2 2
4 3 2 2 2 1 2 5 5 5 5 3 2 1 3 2 2 2 1 0 1 2 2 2 2 2 2 2 2 2 3 4 3 4 4 4 3 2 3 3 3 3 2 2
7 6 4 1 3 4 5 6 5 6 5 3 2 1 4 1 2 3 3 2 1 2 2 3 3 2 2 2 1 1 1 1 1 2 2 2 2 2 2 1 1 1 2 2
3 6 5 3 1 1 2 6 6 3 4 4 2 2 3 2 2 2 2 2 2 3 4 5 5 5 5 5 4 3 2 2 2 2 2 2 2 1 1 1 1 1 1 2
1 5 4 3 3 2 3 3 3 6 1 1 4 4 3 2 1 1 2 2 4 5 6 6 6 7 7 6 6 5 5 5 5 4 4 4 3 3 3 3 2 2 2 2
3 3 5 5 5 7 5 6 5 4 3 2 4 3 3 3 3 3 3 4 5 5 6 7 7 7 6 6 6 6 7 7 7 6 5 5 5 5 5 4 4 4 4 3
2 1 6 5 5 5 5 4 5 4 3 3 2 4 2 3 3 3 3 4 5 6 7 7 7 6 6 6 6 7 7 8 8 8 7 7 7 6 5 5 6 6 5 5
3 5 2 3 3 1 3 3 3 3 1 2 2 5 3 2 1 0 1 3 4 5 6 6 7 6 6 7 7 7 8 8 9 9 8 8 8 7 7 8 8 7 7 6
4 6 4 7 7 6 5 4 3 4 4 2 1 5 2 3 3 2 2 4 5 6 6 6 6 6 7 8 8 8 9 9 10 9 9 9 9 9 10 10 9 8 8 7
6 5 4 3 4 2 3 4 3 4 3 1 3 6 4 3 3 4 5 6 6 7 7 7 7 8 8 9 9 9 10 10 10 9 9 10 11 11 11 11 9 9 9 8
6 4 2 0 1 2 3 3 3 3 2 3 5 5 5 3 4 5 6 7 8 9 9 9 9 9 9 9 9 9 10 10 9 9 9 11 12 11 10 10 10 10 9 10
5 5 2 2 3 4 4 4 3 1 0 2 3 6 4 4 4 6 8 9 9 10 10 10 10 9 10 10 10 10 10 10 9 9 11 11 10 10 10 11 11 10 9 9
3 5 3 1 1 2 2 1 1 2 3 4 5 6 4 6 7 7 8 9 10 11 10 10 10 10 10 10 10 10 11 10 9 10 11 11 10 10 11 11 9 9 10 9
6 5 4 2 2 3 5 2 3 4 5 4 5 5 6 8 8 8 9 8 10 10 10 10 10 10 10 10 10 10 10 10 10 10 11 10 10 11 10 10 10 10 8 8
4 7 4 3 1 4 2 2 2 3 6 4 4 6 7 7 6 7 7 6 8 9 10 10 10 11 10 11 11 10 11 11 11 11 11 11 10 10 10 10 10 9 7 8
6 5 6 3 1 4 5 2 0 1 6 4 4 6 7 5 6 7 6 7 9 9 9 10 10 11 11 12 11 11 12 12 12 12 12 11 10 10 11 10 9 8 7 8
3 5 4 3 2 7 4 1 2 1 7 3 4 6 5 5 8 9 9 9 8 9 11 11 11 11 12 12 11 12 13 13 13 12 12 12 11 11 11 10 9 8 8 8
4 3 3 3 1 6 3 3 4 8 3 2 4 5 6 8 9 9 8 9 10 11 11 11 11 12 12 12 12 13 14 13 13 13 13 12 11 11 10 8 8 7 7 8
5 7 6 8 7 6 4 5 4 4 3 3 4 5 5 6 7 8 7 9 10 11 11 11 12 14 13 12 12 14 15 13 13 13 12 11 11 10 9 8 8 7 6 7
2 3 4 3 6 5 4 3 2 3 4 4 4 5 4 5 7 9 8 9 10 10 12 11 13 14 15 14 13 13 14 13 13 13 11 10 9 9 7 6 6 6 6 6
5 5 3 4 5 3 5 5 4 3 3 3 3 3 4 5 7 7 8 10 10 11 10 11 12 14 16 15 15 14 13 12 12 12 10 10 8 8 7 6 5 6 6 6
6 8 8 7 7 6 6 4 4 3 3 3 3 4 5 5 7 8 8 9 10 12 12 12 13 15 15 15 15 14 13 12 12 10 9 7 6 6 5 5 5 7 8 9
Wind_Direction
43 63 259 241 210 215 233 260 304 304 112 74 74 62 34 26 43 52 53 55 57 56 51 43 39 39 44 40 40 41 10 5 22 19 348 10 251 252 257 243 224 221 216 208
23 296 252 246 212 188 195 188 200 74 98 103 93 69 47 37 42 44 49 51 52 47 41 40 41 40 36 35 29 39 21 15 10 351 23 254 254 256 248 249 232 226 217 211
220 257 287 318 355 155 194 187 198 168 109 88 109 57 31 36 44 48 47 46 44 45 39 28 30 33 34 38 31 32 33 26 13 3 16 355 14 354 303 277 263 258 237 221
267 277 328 351 285 164 255 238 181 157 129 70 96 121 317 15 28 33 32 31 28 27 33 32 29 28 28 36 46 44 40 40 27 25 37 43 35 3 326 315 323 324 324 304
292 310 332 325 293 207 209 59 80 89 112 75 31 104 269 199 14 15 23 29 23 17 25 30 23 18 20 31 51 53 56 49 41 49 52 57 51 25 347 1 3 357 358 11
273 300 268 269 323 36 113 73 56 50 66 54 334 120 261 226 196 188 198 164 11 348 344 351 346 346 359 7 21 36 60 52 44 60 65 73 70 49 38 23 11 1 353 3
337 337 330 322 4 16 63 74 28 4 11 268 292 179 244 214 160 175 192 200 240 272 281 283 286 295 292 287 280 311 76 60 28 70 84 101 110 96 82 41 4 354 344 338
353 319 323 350 11 309 67 120 145 204 234 279 333 258 260 153 136 138 152 185 225 256 264 267 266 265 265 264 263 259 245 240 244 226 221 214 186 171 190 208 223 257 264 274
212 279 314 1 4 91 90 75 138 127 117 327 297 301 320 130 179 191 196 216 245 258 264 264 264 262 261 263 262 258 256 256 252 242 238 242 233 222 224 229 231 240 252 262
171 274 316 327 36 33 84 131 87 98 124 296 307 305 289 277 254 236 227 236 252 262 268 271 270 266 267 266 269 268 257 254 255 252 244 242 238 235 232 229 236 239 244 247
111 115 327 17 38 357 19 52 85 95 131 150 284 288 302 284 269 227 236 250 261 267 270 273 274 275 275 273 268 265 264 263 264 258 253 253 252 247 243 241 242 239 240 241
101 104 358 314 314 351 67 63 126 122 161 147 186 271 336 354 27 110 283 298 296 290 284 283 280 281 280 277 274 266 262 260 260 260 259 256 255 251 245 244 244 238 237 238
117 86 36 353 348 7 35 33 82 105 101 117 177 276 352 28 29 9 327 308 303 299 296 293 291 289 282 278 276 271 265 260 260 258 256 258 258 252 247 246 244 237 233 237
102 86 132 191 255 302 20 20 57 87 90 265 243 268 313 344 334 317 306 296 295 291 292 293 291 288 284 282 279 277 275 270 267 263 259 258 257 253 251 248 244 240 234 233
88 92 88 346 338 103 77 52 58 82 149 207 261 259 267 276 281 283 287 292 297 296 293 289 285 284 285 285 284 279 277 277 274 271 266 261 259 257 254 253 250 245 237 236
72 108 86 30 42 74 69 37 51 53 300 256 266 268 251 277 286 287 287 289 291 291 290 287 287 286 285 284 283 282 280 278 277 273 271 270 268 264 258 254 251 247 243 239
84 115 111 221 290 11 293 253 240 254 243 232 245 258 289 296 288 280 283 287 288 288 288 288 289 286 284 284 283 281 279 279 277 274 273 271 268 266 263 260 254 247 245 240
123 104 112 117 73 259 251 238 211 235 253 229 241 265 276 268 274 275 275 279 284 288 290 291 291 289 287 286 286 283 283 280 278 277 275 272 268 266 264 260 254 248 244 239
125 127 112 111 195 285 270 224 195 240 276 223 237 270 281 293 316 292 276 276 278 285 288 288 289 291 290 291 290 291 290 286 283 281 278 275 270 267 264 258 255 250 244 243
59 83 106 116 164 255 253 241 201 134 287 238 235 270 285 319 318 287 288 302 299 297 296 296 296 297 297 296 296 295 293 291 289 287 283 278 271 266 263 258 254 251 244 244
39 46 91 139 225 266 253 259 74 218 266 247 239 264 277 259 246 271 298 300 294 294 296 298 299 301 299 300 300 297 296 293 292 292 287 281 275 269 264 258 251 247 245 244
167 146 164 143 201 271 220 145 185 223 243 255 261 266 269 267 274 288 296 297 301 302 301 302 304 303 302 302 302 300 298 296 295 294 290 285 279 275 274 259 250 243 239 240
185 186 183 183 210 237 224 210 215 185 219 252 257 272 278 281 288 295 294 296 298 300 303 305 306 307 307 306 305 303 303 303 301 298 295 289 286 278 270 261 254 246 236 235
232 138 138 232 259 243 233 231 229 205 224 251 264 278 283 285 290 294 294 297 302 303 308 309 311 313 314 314 311 306 306 307 304 301 299 293 288 284 272 261 251 242 235 231
219 163 170 242 267 271 257 233 228 232 249 274 288 284 284 287 290 290 296 302 305 308 309 310 314 316 316 317 315 313 313 312 308 303 299 296 288 284 280 265 249 244 235 224
197 175 174 216 217 194 235 228 200 211 244 267 285 297 297 286 285 294 300 301 305 310 314 317 319 318 318 318 316 317 317 315 310 307 303 298 294 289 281 274 269 246 240 234